When you browse on this site, cookies collect data to enhance your experience and personalize the content and advertising you see.
Visit our Privacy Policy to learn more. By continuing to use the site, you agree to this use of cookies and data.
  • In Spain
  • List of Countries
  • For 7 days
  • Water Temperature
  • Weather Map
  • Weather Widgets
  • user-avatar
    Login

    Hourly Weather Stepanakert

    Today, 6 April, Monday

    Time Temperature Precipitation Wind Pressure Humidity
    00:00 +10°C° 0 mm 1 mps 693 mmHg 77%
    01:00 +10°C° 0 mm 1 mps 693 mmHg 75%
    02:00 +10°C° 0 mm 1 mps 692 mmHg 73%
    03:00 +10°C° 0 mm 1 mps 692 mmHg 70%
    04:00 +10°C° 0 mm 1 mps 692 mmHg 70%
    05:00 +10°C° 0 mm 1 mps 692 mmHg 70%
    06:00 +10°C° 0 mm 1 mps 692 mmHg 70%
    07:00 +12°C° 0 mm 1 mps 692 mmHg 68%
    08:00 +13°C° 0 mm 1 mps 692 mmHg 65%
    09:00 +15°C° 0 mm 2 mps 693 mmHg 62%
    10:00 +15°C° 0 mm 2 mps 693 mmHg 64%
    11:00 +16°C° 0 mm 2 mps 693 mmHg 66%
    12:00 +16°C° 0 mm 2 mps 693 mmHg 68%
    13:00 +16°C° 0.2 mm 2 mps 693 mmHg 72%
    14:00 +15°C° 0.2 mm 2 mps 693 mmHg 76%
    15:00 +15°C° 0.2 mm 1 mps 693 mmHg 79%
    16:00 +14°C° 0.6 mm 2 mps 693 mmHg 84%
    17:00 +13°C° 0.6 mm 2 mps 693 mmHg 89%
    18:00 +11°C° 0.6 mm 3 mps 693 mmHg 94%
    19:00 +10°C° 0.6 mm 3 mps 693 mmHg 94%
    20:00 +9°C° 0.6 mm 3 mps 693 mmHg 95%
    21:00 +7°C° 0.6 mm 3 mps 693 mmHg 95%
    22:00 +5°C° 1.7 mm 3 mps 693 mmHg 95%
    23:00 +4°C° 1.7 mm 3 mps 693 mmHg 96%

    Tomorrow, 7 April, Tuesday

    Time Temperature Precipitation Wind Pressure Humidity
    00:00 +3°C° 1.7 mm 3 mps 694 mmHg 96%
    01:00 +3°C° 1.6 mm 3 mps 694 mmHg 97%
    02:00 +2°C° 1.6 mm 3 mps 694 mmHg 97%
    03:00 0°C° 1.6 mm 4 mps 694 mmHg 97%
    04:00 +1°C° 1 mm 3 mps 694 mmHg 97%
    05:00 0°C° 1 mm 3 mps 694 mmHg 97%
    06:00 0°C° 1 mm 3 mps 695 mmHg 97%
    07:00 0°C° 0.6 mm 3 mps 695 mmHg 97%
    08:00 0°C° 0.6 mm 3 mps 696 mmHg 97%
    09:00 +1°C° 0.6 mm 2 mps 696 mmHg 97%
    10:00 +1°C° 1 mm 2 mps 696 mmHg 97%
    11:00 +1°C° 1 mm 2 mps 696 mmHg 97%
    12:00 +1°C° 1 mm 2 mps 696 mmHg 97%
    13:00 +1°C° 0.4 mm 2 mps 696 mmHg 96%
    14:00 +1°C° 0.4 mm 2 mps 696 mmHg 95%
    15:00 +1°C° 0.4 mm 2 mps 696 mmHg 94%
    16:00 +1°C° 0.2 mm 2 mps 697 mmHg 95%
    17:00 +1°C° 0.2 mm 2 mps 697 mmHg 95%
    18:00 +1°C° 0.2 mm 2 mps 697 mmHg 96%
    19:00 -1°C° 0.3 mm 2 mps 697 mmHg 96%
    20:00 -1°C° 0.3 mm 2 mps 698 mmHg 97%
    21:00 -1°C° 0.3 mm 2 mps 698 mmHg 98%
    22:00 -1°C° 0.5 mm 2 mps 699 mmHg 98%
    23:00 -2°C° 0.5 mm 2 mps 699 mmHg 97%

    Day after tomorrow, 8 April, Wednesday

    Time Temperature Precipitation Wind Pressure Humidity
    00:00 -2°C° 0.5 mm 2 mps 700 mmHg 97%
    01:00 -2°C° 0.3 mm 2 mps 700 mmHg 97%
    02:00 -2°C° 0.3 mm 2 mps 700 mmHg 96%
    03:00 -3°C° 0.3 mm 2 mps 700 mmHg 95%
    04:00 -3°C° 0.1 mm 2 mps 700 mmHg 94%
    05:00 -3°C° 0.1 mm 2 mps 701 mmHg 92%
    06:00 -4°C° 0.1 mm 2 mps 701 mmHg 91%
    07:00 -3°C° 0.1 mm 2 mps 701 mmHg 89%
    08:00 -2°C° 0.1 mm 2 mps 701 mmHg 87%
    09:00 -1°C° 0.1 mm 3 mps 701 mmHg 86%
    10:00 +1°C° 0.1 mm 2 mps 701 mmHg 86%
    11:00 +2°C° 0.1 mm 2 mps 701 mmHg 86%
    12:00 +2°C° 0.1 mm 2 mps 701 mmHg 87%
    13:00 +2°C° 0.1 mm 2 mps 700 mmHg 87%
    14:00 +3°C° 0.1 mm 2 mps 699 mmHg 87%
    15:00 +3°C° 0.1 mm 2 mps 698 mmHg 88%
    16:00 +3°C° 0.1 mm 2 mps 698 mmHg 89%
    17:00 +3°C° 0.1 mm 1 mps 698 mmHg 91%
    18:00 +3°C° 0.1 mm 1 mps 698 mmHg 92%
    19:00 +3°C° 0.1 mm 1 mps 698 mmHg 93%
    20:00 +2°C° 0.1 mm 1 mps 698 mmHg 93%
    21:00 +1°C° 0.1 mm 0 mps 697 mmHg 94%
    22:00 +1°C° 0 mm 0 mps 697 mmHg 93%
    23:00 0°C° 0 mm 0 mps 696 mmHg 93%

    9 April, Thursday

    Time Temperature Precipitation Wind Pressure Humidity
    00:00 0°C° 0 mm 0 mps 696 mmHg 93%
    01:00 0°C° 0 mm 0 mps 695 mmHg 92%
    02:00 0°C° 0 mm 0 mps 695 mmHg 91%
    03:00 -1°C° 0 mm 0 mps 694 mmHg 91%
    04:00 -1°C° 0 mm 0 mps 694 mmHg 89%
    05:00 0°C° 0 mm 0 mps 693 mmHg 88%
    06:00 0°C° 0 mm 0 mps 693 mmHg 87%
    07:00 +2°C° 0 mm 1 mps 693 mmHg 85%
    08:00 +3°C° 0 mm 1 mps 693 mmHg 84%
    09:00 +4°C° 0 mm 1 mps 693 mmHg 83%
    10:00 +5°C° 0 mm 1 mps 692 mmHg 82%
    11:00 +6°C° 0 mm 1 mps 692 mmHg 82%
    12:00 +6°C° 0 mm 2 mps 691 mmHg 82%
    13:00 +6°C° 0 mm 2 mps 691 mmHg 82%
    14:00 +7°C° 0 mm 1 mps 691 mmHg 83%
    15:00 +7°C° 0 mm 1 mps 690 mmHg 83%
    16:00 +7°C° 0 mm 1 mps 690 mmHg 85%
    17:00 +6°C° 0 mm 1 mps 690 mmHg 87%
    18:00 +6°C° 0 mm 1 mps 691 mmHg 89%
    19:00 +6°C° 0 mm 1 mps 691 mmHg 89%
    20:00 +4°C° 0 mm 0 mps 691 mmHg 90%
    21:00 +4°C° 0 mm 0 mps 691 mmHg 90%
    22:00 +4°C° 0 mm 0 mps 691 mmHg 90%
    23:00 +4°C° 0 mm 0 mps 691 mmHg 90%

    10 April, Friday

    Time Temperature Precipitation Wind Pressure Humidity
    00:00 +4°C° 0 mm 0 mps 691 mmHg 91%
    01:00 +4°C° 0 mm 0 mps 691 mmHg 91%
    02:00 +3°C° 0 mm 0 mps 691 mmHg 91%
    03:00 +4°C° 0 mm 1 mps 690 mmHg 91%
    04:00 +3°C° 0 mm 0 mps 690 mmHg 91%
    05:00 +3°C° 0 mm 0 mps 690 mmHg 90%
    06:00 +3°C° 0 mm 0 mps 690 mmHg 89%
    07:00 +4°C° 0 mm 0 mps 690 mmHg 86%
    08:00 +6°C° 0 mm 1 mps 691 mmHg 84%
    09:00 +7°C° 0 mm 1 mps 691 mmHg 81%
    10:00 +8°C° 0 mm 1 mps 691 mmHg 81%
    11:00 +7°C° 0 mm 2 mps 690 mmHg 81%
    12:00 +8°C° 0 mm 2 mps 690 mmHg 81%
    13:00 +8°C° 0.1 mm 2 mps 690 mmHg 83%
    14:00 +8°C° 0.1 mm 2 mps 689 mmHg 85%
    15:00 +9°C° 0.1 mm 1 mps 689 mmHg 87%
    16:00 +8°C° 0 mm 1 mps 689 mmHg 89%
    17:00 +8°C° 0 mm 1 mps 689 mmHg 92%
    18:00 +7°C° 0 mm 1 mps 688 mmHg 94%
    19:00 +6°C° 0.1 mm 0 mps 689 mmHg 94%
    20:00 +6°C° 0.1 mm 0 mps 689 mmHg 94%
    21:00 +6°C° 0.1 mm 0 mps 689 mmHg 94%
    22:00 +6°C° 0 mm 0 mps 689 mmHg 94%
    23:00 +6°C° 0 mm 0 mps 689 mmHg 94%

    11 April, Saturday

    Time Temperature Precipitation Wind Pressure Humidity
    00:00 +6°C° 0 mm 0 mps 689 mmHg 94%
    01:00 +6°C° 0 mm 0 mps 689 mmHg 94%
    02:00 +6°C° 0 mm 0 mps 688 mmHg 94%
    03:00 +6°C° 0 mm 0 mps 688 mmHg 94%
    04:00 +6°C° 0 mm 0 mps 688 mmHg 94%
    05:00 +6°C° 0 mm 0 mps 688 mmHg 93%
    06:00 +6°C° 0 mm 0 mps 688 mmHg 93%
    07:00 +6°C° 0 mm 0 mps 688 mmHg 90%
    08:00 +8°C° 0 mm 1 mps 688 mmHg 87%
    09:00 +8°C° 0 mm 1 mps 688 mmHg 84%
    10:00 +9°C° 0 mm 1 mps 688 mmHg 82%
    11:00 +9°C° 0 mm 2 mps 688 mmHg 80%
    12:00 +10°C° 0 mm 2 mps 688 mmHg 79%
    13:00 +9°C° 0 mm 2 mps 688 mmHg 81%
    14:00 +9°C° 0 mm 2 mps 687 mmHg 83%
    15:00 +9°C° 0 mm 2 mps 687 mmHg 85%
    16:00 +9°C° 0 mm 1 mps 687 mmHg 87%
    17:00 +9°C° 0 mm 1 mps 687 mmHg 88%
    18:00 +9°C° 0 mm 1 mps 687 mmHg 90%
    19:00 +9°C° 0 mm 1 mps 688 mmHg 91%
    20:00 +8°C° 0 mm 1 mps 689 mmHg 91%
    21:00 +8°C° 0 mm 1 mps 689 mmHg 91%
    22:00 +8°C° 0.1 mm 1 mps 690 mmHg 91%
    23:00 +8°C° 0.1 mm 1 mps 690 mmHg 91%
    Show more